Wind_Speed
28 32 33 35 38 41 44 46 46 46 47 48 50 51 50 49 47 46 44 41 39 38 38 38 35 36 37 36 33 31 31 30 30 29 28 29 30 27 24 24 23 24 26 28
33 34 35 39 41 43 45 47 48 49 49 50 50 52 52 51 49 47 47 45 42 40 39 38 35 35 36 36 35 32 32 31 30 30 29 28 27 27 26 25 26 26 28 31
36 37 39 42 44 46 47 49 51 52 53 52 53 52 52 52 52 50 48 46 44 42 40 39 36 35 36 36 36 34 34 34 33 31 29 27 28 29 28 28 29 30 32 34
40 41 44 47 49 51 52 53 54 55 56 55 55 55 50 52 54 52 49 47 45 43 41 39 37 37 37 37 37 37 36 35 35 32 30 29 29 30 31 31 33 34 35 37
44 47 51 53 54 56 56 56 57 58 58 58 56 59 53 50 51 51 50 49 48 45 44 41 38 38 38 38 37 38 37 36 34 33 32 32 31 31 32 33 35 37 38 39
48 52 56 56 55 56 56 56 57 58 59 60 58 61 56 51 47 48 49 49 49 47 45 41 40 41 40 39 38 38 38 37 34 33 34 34 33 33 34 35 37 38 40 41
49 50 52 52 51 51 52 52 53 55 58 60 59 61 58 55 49 47 48 50 50 49 46 42 41 41 41 39 38 37 37 37 35 34 34 34 33 34 35 36 37 39 41 42
46 47 44 42 42 44 46 47 49 51 54 57 58 60 58 58 54 49 46 47 50 50 47 42 41 42 40 39 38 37 36 36 35 34 34 33 33 34 35 36 38 40 42 43
44 42 36 31 32 36 38 40 41 43 45 49 55 58 58 57 56 52 46 45 47 48 47 42 42 42 40 38 37 36 36 36 34 33 32 32 32 33 35 37 40 41 42 42
38 36 29 25 26 27 30 32 34 37 40 43 47 49 51 49 49 50 46 46 48 48 46 41 41 42 40 38 37 35 35 35 34 32 32 32 32 34 36 37 39 39 40 41
32 32 28 24 23 25 29 31 33 37 40 41 41 37 31 30 34 36 39 46 47 47 43 39 39 41 40 38 36 35 34 34 34 33 34 34 34 35 35 36 38 39 39 41
28 29 28 24 22 26 28 29 31 34 35 35 36 24 21 22 25 31 38 42 42 41 39 39 41 41 40 38 36 35 35 35 35 35 36 36 35 35 35 36 37 39 40 41
26 27 28 25 22 22 23 22 25 28 30 30 28 15 21 21 23 29 35 36 36 37 38 39 42 41 39 37 35 34 35 36 37 37 37 36 35 34 35 36 37 39 40 42
23 24 25 25 23 23 21 19 19 22 23 20 18 12 20 21 23 29 35 34 35 38 39 40 40 38 36 35 35 35 36 36 36 36 35 33 32 33 34 36 37 38 41 44
19 22 24 23 20 19 17 15 13 14 13 13 11 13 20 21 26 31 33 33 34 37 38 38 37 35 34 34 35 35 35 35 34 32 30 29 30 32 34 35 37 40 44 47
13 17 18 16 14 10 7 4 3 6 8 9 10 18 23 27 30 31 31 31 32 33 33 32 32 31 32 33 33 33 33 32 30 27 26 27 30 31 32 35 39 43 47 50
12 14 16 15 13 11 8 5 6 8 9 12 19 26 28 30 29 29 28 28 28 29 29 29 28 28 28 28 28 28 27 25 24 23 25 27 28 30 34 38 42 46 49 51
12 13 14 15 15 13 8 7 9 11 16 21 26 29 29 26 25 24 23 22 24 24 24 23 22 21 21 21 20 20 20 20 21 23 24 26 30 34 38 41 45 48 50 53
10 12 13 15 16 16 16 15 15 19 23 26 27 27 27 24 23 20 18 17 17 17 16 16 15 14 14 14 15 16 17 18 20 23 26 29 33 37 41 44 47 49 52 54
6 9 11 12 14 16 19 21 22 24 26 23 21 20 21 20 19 17 15 13 12 11 11 11 11 10 11 12 13 15 17 19 22 25 29 32 36 39 42 45 48 50 52 55
4 6 8 9 9 10 12 14 16 17 18 16 15 14 15 15 14 13 12 11 10 9 9 9 9 10 11 13 15 17 19 21 25 28 31 34 37 40 43 46 48 51 54 56
7 6 6 7 8 7 7 7 9 9 10 10 10 11 11 12 12 12 13 13 12 11 11 10 11 12 13 15 17 19 21 24 27 30 33 36 39 41 44 46 49 52 53 54
12 10 8 6 6 7 7 7 6 6 7 8 9 10 11 12 13 13 13 13 12 11 11 11 12 14 15 17 19 21 24 27 29 32 34 37 39 42 45 48 50 51 51 53
15 14 13 11 10 9 8 7 5 4 5 7 8 10 11 12 13 13 13 12 12 12 12 13 13 14 16 18 20 22 25 28 31 34 36 38 40 43 45 47 48 49 51 53
16 16 15 15 14 12 10 7 5 5 4 5 7 8 10 12 13 14 14 14 14 14 13 13 13 14 15 18 21 25 28 31 33 34 36 39 41 43 44 46 47 49 53 57
17 16 16 16 16 14 11 7 6 6 5 5 6 6 6 8 11 13 15 15 14 14 13 13 13 15 18 22 26 28 30 31 33 35 38 39 41 43 44 46 49 52 56 62
Wind_Direction
268 270 273 274 273 273 273 272 271 269 262 255 252 251 248 247 246 246 245 244 244 247 247 247 247 242 241 243 245 246 245 245 246 247 252 257 254 249 249 254 261 267 273 277
274 276 276 274 273 273 272 272 271 269 266 261 256 251 249 247 245 244 245 245 242 242 245 246 245 241 237 240 243 246 246 245 245 247 251 258 254 246 250 257 262 269 275 278
277 279 278 278 276 274 272 271 268 267 265 263 260 254 248 247 245 242 243 245 242 240 243 245 243 240 236 237 241 244 247 245 246 249 251 255 251 248 253 259 265 270 276 279
278 281 280 278 277 275 271 269 266 264 262 260 259 259 248 244 244 242 241 242 242 241 244 244 239 238 237 236 238 242 245 245 245 248 250 252 253 254 256 260 265 270 275 278
282 281 280 279 277 273 270 267 265 264 262 261 259 259 256 246 242 242 241 239 240 242 245 244 236 234 235 236 237 240 243 246 246 247 249 251 253 256 259 262 266 270 275 278
285 285 283 280 275 270 266 263 261 260 259 259 258 257 256 252 243 239 239 238 238 241 244 243 234 231 234 235 236 239 243 246 249 249 250 252 255 258 262 265 268 272 275 278
289 291 289 281 271 264 260 258 257 257 256 257 256 255 255 254 246 239 236 237 239 241 244 241 232 229 232 233 235 239 243 245 248 249 250 252 255 259 263 267 270 272 275 277
296 300 296 283 269 261 257 255 255 257 258 258 254 252 250 251 248 240 234 235 237 240 241 237 227 223 227 230 233 238 242 244 246 248 250 253 256 259 263 267 270 272 275 280
302 308 305 288 269 260 256 255 255 257 258 257 254 251 248 247 248 242 233 231 233 235 236 231 221 219 222 228 233 238 242 244 245 247 250 254 257 260 263 267 270 274 279 284
307 311 308 291 275 269 265 259 253 253 255 258 258 255 252 248 249 244 233 227 227 228 228 224 217 216 220 226 232 238 244 246 246 247 251 255 259 262 266 270 275 280 285 287
308 309 308 294 282 271 265 261 257 256 258 261 264 260 253 247 240 233 224 221 221 222 220 214 212 215 220 226 232 239 245 247 247 249 252 256 260 265 270 276 281 285 286 289
306 306 308 301 285 271 268 265 260 258 262 263 262 249 232 229 223 210 204 207 211 212 209 204 207 213 220 227 234 240 246 249 249 251 254 258 263 269 275 281 284 286 288 290
308 308 310 309 298 287 280 274 266 263 262 259 253 215 201 203 201 195 190 192 197 198 199 201 207 212 219 227 234 241 245 248 249 252 255 260 266 272 278 282 285 287 290 293
314 318 319 319 312 303 295 288 273 261 258 253 236 195 183 178 177 180 176 178 185 192 196 201 206 211 218 226 234 239 243 246 248 251 256 262 269 275 280 283 287 290 294 296
323 329 334 334 329 315 303 289 272 256 243 235 211 182 159 157 162 171 174 178 186 192 197 202 208 214 222 229 234 238 242 245 248 252 258 265 273 278 282 286 291 294 297 298
348 355 1 5 1 355 343 315 238 203 199 188 172 143 145 149 157 166 173 180 188 194 199 203 210 217 222 227 231 235 240 245 250 257 265 272 277 281 286 291 295 296 298 300
29 29 29 32 28 26 35 60 94 106 119 124 126 130 140 145 153 161 169 179 187 194 199 205 210 215 219 224 229 235 241 249 257 266 272 276 280 286 291 294 296 298 300 301
51 53 45 42 41 41 54 84 100 107 118 124 127 135 142 146 147 150 157 166 176 184 191 197 203 210 216 223 231 240 249 258 266 271 276 281 287 291 293 295 297 299 301 302
54 62 60 60 64 68 80 97 113 122 126 130 129 130 133 133 134 139 145 152 161 170 179 188 197 207 217 229 240 251 259 265 272 278 283 287 290 293 295 297 299 300 302 303
80 80 79 76 79 84 90 96 107 121 124 126 125 125 128 132 136 142 149 156 165 178 188 197 205 214 227 240 251 258 265 273 279 283 287 290 293 295 297 298 300 301 302 303
156 123 113 107 103 103 104 106 116 124 128 132 135 137 142 148 153 159 167 175 183 192 204 216 227 238 247 255 261 267 273 279 283 287 290 292 294 296 298 299 300 301 302 303
197 185 166 152 145 142 143 141 144 148 155 161 167 172 177 181 183 186 192 198 205 212 222 234 242 248 254 259 265 272 278 283 287 289 291 293 295 296 297 299 300 302 304 306
210 210 205 193 176 168 168 169 176 185 193 203 212 216 217 216 212 209 208 211 216 222 226 233 242 250 259 266 273 280 284 287 289 291 293 295 296 297 299 301 303 305 306 308
212 211 211 210 203 192 184 180 182 194 207 214 222 229 232 230 226 222 219 218 220 224 229 239 250 261 270 277 283 287 290 292 293 295 296 297 298 300 302 304 305 307 308 309
213 213 214 212 206 201 199 195 187 175 179 203 220 228 231 229 226 226 227 228 229 230 238 250 260 269 279 288 293 295 295 295 296 297 298 300 302 304 305 306 307 309 310 312
216 217 216 213 209 208 208 205 194 188 200 222 234 241 242 232 226 225 226 228 231 239 250 260 271 282 291 296 297 297 297 297 299 301 303 304 306 306 307 308 311 313 315 316
Height
5685 5688 5689 5689 5687 5687 5687 5687 5688 5689 5691 5693 5696 5699 5704 5708 5712 5717 5721 5725 5728 5731 5734 5737 5741 5745 5749 5751 5752 5754 5756 5757 5758 5758 5759 5759 5761 5762 5764 5764 5765 5765 5764 5764
5677 5680 5679 5677 5677 5676 5676 5676 5677 5678 5679 5680 5684 5687 5693 5697 5702 5708 5712 5716 5720 5722 5725 5728 5732 5736 5740 5743 5745 5746 5748 5749 5750 5752 5753 5754 5755 5757 5757 5758 5758 5758 5758 5757
5667 5670 5668 5666 5666 5665 5665 5665 5665 5664 5665 5667 5669 5674 5682 5687 5690 5697 5702 5706 5710 5714 5716 5719 5724 5728 5732 5735 5738 5740 5741 5742 5744 5745 5747 5748 5749 5750 5750 5751 5752 5751 5750 5749
5658 5658 5656 5653 5653 5650 5650 5650 5649 5649 5649 5653 5656 5657 5669 5674 5678 5686 5693 5697 5701 5704 5707 5711 5716 5721 5724 5727 5730 5732 5734 5736 5737 5739 5741 5742 5743 5744 5744 5744 5744 5743 5742 5742
5647 5645 5641 5640 5639 5633 5633 5633 5633 5633 5634 5637 5642 5643 5652 5663 5669 5676 5682 5687 5691 5695 5698 5702 5707 5713 5716 5719 5722 5724 5727 5729 5731 5732 5734 5736 5736 5736 5736 5736 5736 5735 5735 5733
5635 5631 5626 5624 5621 5616 5615 5616 5615 5615 5617 5621 5629 5628 5636 5648 5659 5665 5670 5675 5680 5685 5688 5693 5698 5703 5707 5711 5715 5717 5720 5722 5723 5725 5727 5728 5728 5728 5729 5728 5728 5728 5727 5725
5622 5618 5610 5606 5603 5600 5598 5600 5600 5600 5601 5605 5612 5614 5625 5633 5644 5651 5658 5663 5669 5674 5678 5684 5689 5695 5699 5704 5707 5710 5713 5715 5716 5718 5720 5720 5720 5721 5721 5720 5720 5720 5718 5716
5606 5602 5595 5590 5587 5585 5585 5585 5587 5588 5588 5590 5594 5600 5612 5618 5625 5635 5644 5649 5656 5663 5668 5674 5680 5686 5692 5696 5700 5703 5705 5707 5709 5711 5712 5712 5712 5713 5713 5712 5712 5711 5710 5707
5595 5589 5583 5578 5575 5574 5575 5575 5578 5577 5576 5576 5579 5585 5594 5604 5609 5618 5630 5637 5644 5651 5658 5664 5671 5678 5684 5688 5692 5695 5698 5700 5702 5704 5705 5705 5705 5705 5704 5704 5704 5703 5701 5698
5586 5580 5576 5572 5569 5568 5568 5568 5568 5568 5567 5566 5569 5573 5581 5590 5594 5603 5616 5625 5632 5640 5648 5656 5664 5671 5676 5681 5684 5688 5691 5694 5695 5697 5698 5698 5698 5697 5697 5697 5696 5694 5691 5688
5580 5575 5571 5567 5564 5563 5561 5560 5560 5559 5559 5560 5559 5566 5573 5578 5583 5592 5603 5613 5621 5630 5639 5648 5657 5664 5669 5674 5677 5681 5685 5687 5689 5690 5690 5690 5690 5690 5689 5689 5687 5685 5682 5679
5575 5569 5564 5561 5558 5555 5553 5553 5552 5552 5552 5552 5552 5558 5565 5570 5575 5582 5591 5602 5613 5623 5632 5640 5649 5657 5662 5667 5671 5675 5678 5681 5682 5682 5683 5683 5683 5682 5682 5681 5679 5676 5673 5669
5570 5565 5559 5555 5554 5550 5547 5547 5546 5546 5546 5545 5546 5553 5557 5563 5569 5575 5584 5595 5607 5618 5627 5634 5642 5649 5655 5660 5665 5669 5672 5674 5675 5675 5675 5675 5675 5675 5674 5672 5670 5667 5664 5660
5566 5562 5558 5553 5548 5545 5543 5542 5541 5540 5540 5542 5545 5550 5555 5560 5567 5574 5582 5592 5603 5614 5622 5630 5637 5644 5649 5654 5658 5662 5665 5667 5668 5668 5668 5668 5668 5667 5666 5664 5661 5658 5655 5650
5564 5560 5555 5550 5546 5543 5541 5540 5539 5538 5540 5542 5546 5549 5555 5560 5567 5575 5582 5591 5601 5611 5619 5626 5633 5639 5644 5649 5653 5656 5659 5660 5661 5661 5661 5661 5661 5660 5657 5655 5653 5649 5645 5640
5563 5560 5555 5551 5547 5543 5541 5541 5540 5541 5543 5544 5547 5551 5557 5562 5570 5578 5585 5593 5601 5610 5617 5624 5630 5635 5639 5643 5647 5650 5653 5654 5655 5655 5654 5654 5653 5651 5649 5647 5643 5639 5634 5628
5564 5560 5558 5555 5551 5549 5547 5546 5545 5546 5547 5549 5552 5557 5562 5567 5574 5580 5587 5594 5601 5608 5615 5621 5626 5631 5635 5638 5642 5645 5647 5648 5648 5648 5647 5647 5645 5643 5641 5638 5634 5629 5623 5618
5567 5563 5561 5559 5558 5555 5555 5551 5551 5551 5552 5555 5558 5562 5568 5573 5578 5584 5590 5596 5602 5609 5614 5619 5624 5628 5631 5634 5638 5640 5641 5642 5641 5641 5640 5639 5637 5635 5632 5629 5624 5619 5613 5607
5570 5567 5566 5564 5563 5561 5560 5558 5557 5559 5561 5564 5567 5570 5575 5579 5585 5590 5595 5600 5605 5610 5614 5618 5622 5625 5627 5630 5633 5634 5635 5635 5635 5634 5633 5632 5630 5627 5623 5619 5614 5609 5602 5595
5573 5571 5570 5569 5569 5568 5569 5568 5568 5570 5572 5575 5577 5580 5583 5587 5591 5596 5599 5603 5607 5610 5613 5616 5619 5622 5624 5626 5628 5629 5629 5629 5629 5628 5627 5625 5622 5618 5614 5609 5604 5598 5591 5584
5575 5574 5573 5573 5573 5573 5574 5574 5576 5579 5580 5582 5584 5586 5588 5591 5594 5598 5600 5604 5607 5609 5612 5614 5616 5618 5620 5622 5623 5623 5623 5623 5623 5621 5619 5616 5613 5609 5604 5599 5593 5587 5580 5573
5574 5574 5574 5574 5575 5578 5577 5578 5580 5582 5582 5583 5585 5588 5590 5592 5595 5597 5600 5602 5605 5607 5609 5611 5613 5614 5616 5617 5618 5618 5618 5617 5616 5613 5611 5607 5604 5599 5594 5589 5583 5576 5569 5561
5572 5574 5574 5575 5578 5577 5577 5579 5580 5582 5583 5584 5586 5588 5589 5591 5593 5595 5597 5599 5601 5603 5605 5607 5609 5611 5612 5613 5613 5612 5611 5610 5608 5605 5602 5598 5594 5589 5584 5578 5572 5565 5557 5549
5570 5571 5572 5573 5575 5576 5577 5578 5579 5581 5582 5583 5585 5587 5588 5590 5591 5592 5594 5596 5598 5600 5602 5604 5606 5607 5607 5607 5607 5606 5605 5603 5600 5597 5594 5589 5585 5580 5574 5568 5561 5553 5545 5537
5568 5569 5570 5571 5574 5575 5576 5577 5578 5579 5581 5582 5584 5585 5586 5587 5588 5590 5592 5594 5596 5598 5600 5601 5602 5602 5602 5602 5601 5600 5598 5595 5592 5589 5585 5581 5575 5570 5563 5556 5549 5541 5533 5524
5565 5566 5567 5569 5572 5574 5575 5576 5577 5578 5580 5581 5582 5583 5583 5584 5585 5587 5589 5591 5594 5595 5596 5597 5597 5598 5597 5596 5595 5593 5590 5588 5584 5580 5576 5571 5565 5559 5552 5545 5538 5529 5521 5510